Location: Heilwood
(40.6210°N, 78.9150°W)
Time: 12:26:17
(UTC-04:00)

Daily predictions for brighter satellites

Satellite Brightness Start Highest point End
(mag) Time Altitude Azimuth Time Altitude Azimuth Time Altitude Azimuth
SAR-Lupe-3 4.5 19:37:38 10° NNE 19:41:13 73° ESE 19:44:47 10° S
GPS 2-04 Rocket1 4.3 19:39:34 10° WSW 19:43:19 30° SSW 19:47:05 10° SE
Meteor 1-15 Rocket 4.3 19:39:16 10° S 19:45:09 73° E 19:50:59 10° NNE
Cosmos 1898 Rocket 3.7 19:40:53 10° N 19:45:57 50° ENE 19:50:57 10° SE
Cosmos 1814 Rocket 4.4 19:45:42 10° S 19:50:27 38° ESE 19:55:12 10° NE
Cosmos 482 Debris 4.4 19:49:24 10° NW 19:53:42 46° NNE 19:56:04 12° ESE
Tiangong 2 2.9 19:51:43 10° W 19:54:30 27° SSW 19:57:15 10° SSE
COSMO-SKYMED 1 4.0 19:51:08 10° N 19:55:16 44° WNW 19:59:23 10° SW
Cosmos 1707 3.3 19:53:12 10° N 19:56:53 37° ENE 20:00:33 10° SSE
Cosmos 1709 Rocket 4.0 19:54:19 10° S 20:00:39 81° E 20:07:03 10° N
Cosmos 2150 Rocket 4.4 19:56:07 10° N 20:01:12 45° ENE 20:06:21 10° SE
Cosmos 990 Rocket 4.3 19:57:07 10° N 20:02:04 44° ENE 20:06:58 10° SE
Cosmos 2369 Rocket 2.5 19:56:28 10° NNW 20:02:07 71° WSW 20:07:41 10° SSE
Cosmos 1340 Rocket 2.8 20:00:13 10° N 20:04:14 62° ENE 20:08:17 10° SSE
FENGYUN 3A 3.8 19:59:25 10° S 20:04:46 79° WSW 20:10:10 10° NNW
Cosmos 1758 Rocket 3.6 20:00:45 10° N 20:05:14 64° E 20:09:41 10° SSE
ALOS 2.8 20:04:33 10° S 20:09:10 64° W 20:13:49 10° NNW
Envisat 4.0 20:05:29 12° ESE 20:09:17 26° ENE 20:13:26 10° NNE
Cosmos 389 Rocket 2.4 20:05:50 10° S 20:09:22 89° NE 20:12:53 10° N
Cosmos 1656 Rocket 4.4 20:04:45 10° N 20:09:57 35° ENE 20:14:09 14° ESE
Cosmos 1356 Rocket 4.4 20:06:13 10° NNE 20:09:58 29° ENE 20:13:05 13° SE
BREEZE M DEB (TANK) 3.8 20:02:07 10° WNW 20:10:35 51° NNE 20:12:59 17° E
Lacrosse 5 2.7 20:05:52 10° NW 20:10:46 49° SW 20:15:38 10° SSE
Cosmos 1726 Rocket 3.4 20:08:27 10° S 20:12:49 76° E 20:17:10 10° N
Cosmos 1271 Rocket 3.2 20:11:51 10° SSW 20:15:32 61° W 20:19:19 10° N
FREGAT/IRIS 3.1 20:14:58 10° S 20:17:59 62° W 20:20:59 10° NNW
Resurs 01 Rocket 2.2 20:16:42 13° SE 20:20:16 37° ENE 20:24:21 10° N
Cosmos 2263 4.5 20:14:50 10° NNW 20:20:26 70° WSW 20:26:02 10° SSE
BREEZE-M DEB (TANK) 4.4 20:17:57 10° WNW 20:21:29 37° NNE 20:31:44 11° ENE
Cosmos 1943 4.4 20:18:37 10° SW 20:24:02 45° WNW 20:29:31 10° NNE
Cosmos 2184 Rocket 4.2 20:18:25 10° SSE 20:24:26 50° E 20:30:32 10° NNE
USA 186 3.1 20:25:29 17° NE 20:25:29 17° NE 20:26:33 10° NNE
Cosmos 2298 Rocket 4.0 20:19:37 10° NNW 20:24:59 82° ENE 20:30:19 10° SSE
CZ-2D R/B 3.3 20:26:32 14° SSE 20:29:42 56° ENE 20:33:27 10° N
FALCON 9 R/B 2.4 20:27:15 10° SW 20:30:12 38° SSE 20:33:19 22° ESE
GP-B 3.9 20:26:53 10° NNE 20:30:45 28° E 20:31:49 25° ESE
SJ-6B 3.2 20:29:01 10° S 20:33:04 68° W 20:37:02 10° NNW
ORS 1 (USA 231) 4.3 20:30:08 10° W 20:33:04 75° S 20:33:49 46° E
Cosmos 1937 Rocket 3.5 20:28:21 10° NNW 20:33:41 85° WSW 20:38:57 10° SSE
Cosmos 841 Rocket 3.4 20:28:43 10° S 20:33:47 62° ESE 20:38:51 10° NNE
Cosmos 1378 3.2 20:31:40 10° N 20:35:27 77° W 20:39:12 10° S
Meteor 1-24 Rocket 3.9 20:32:53 10° N 20:38:50 59° ENE 20:44:00 13° SSE
USA 229 DEB 4.0 20:32:26 10° NW 20:39:36 74° WSW 20:46:55 10° SSE
USA 229 4.0 20:32:32 10° NW 20:39:43 75° WSW 20:46:59 10° SSE
YAOGAN 6 4.4 20:44:48 17° NE 20:44:48 17° NE 20:46:15 10° NNE
NOSS 3-1 (A) 4.3 20:36:43 10° NNW 20:44:07 54° NE 20:48:54 26° ESE
Cosmos 2058 Rocket 3.6 20:43:32 10° SSW 20:47:50 61° W 20:52:10 10° N
BREEZE-M DEB (TANK) 3.7 20:46:49 10° NNW 20:47:45 13° N 20:47:45 13° N
Cosmos 1812 Rocket 4.0 20:48:55 38° E 20:49:04 38° E 20:53:13 10° NNE
Cosmos 1544 3.2 20:49:31 50° E 20:49:31 50° E 20:52:51 10° NNE
Cosmos 2327 Rocket 4.3 20:43:38 10° S 20:49:45 73° E 20:55:50 10° N
Cosmos 2084 3.1 20:47:26 10° SSW 20:51:33 89° SE 20:54:36 16° NE
Cosmos 2228 3.6 20:48:22 10° SSW 20:52:41 58° W 20:56:59 10° N
NOSS 3-1 (C) 4.0 20:47:29 10° NNW 20:55:09 77° NE 21:00:23 26° SE
Cosmos 1763 Rocket 4.0 20:51:45 10° SSW 20:56:47 61° WNW 21:01:54 10° NNE
Meteor 2-8 Rocket 4.4 20:53:16 10° N 20:59:24 68° E 21:03:15 24° SSE
MOS 1-B Rocket 3.9 20:55:10 14° SSE 21:00:43 78° ENE 21:06:30 10° N
ATLAS CENTAUR R/B 3.3 20:50:16 10° NW 21:03:27 80° SW 21:05:46 35° SSE
Cosmos 540 Rocket 3.3 21:01:03 10° S 21:06:03 60° ESE 21:11:05 10° NNE
GEOS 3 Rocket 3.6 21:01:09 10° NE 21:06:33 74° SE 21:11:55 10° SSW
Cosmos 1943 Rocket 3.8 21:05:56 10° NW 21:10:48 31° WSW 21:15:39 10° SSW
Meteor 2-19 Rocket 4.3 21:05:07 10° S 21:11:07 71° E 21:17:08 10° NNE
Meteor 1-22 Rocket 4.4 21:07:57 10° SSW 21:13:45 72° W 21:19:20 10° N
Spot 2 Rocket 3.7 21:12:52 23° S 21:15:58 69° WSW 21:21:01 10° NNW
Cosmos 836 Rocket 4.4 21:13:08 10° SSW 21:18:26 83° ESE 21:23:43 10° NNE
Cosmos 1939 Rocket 3.1 21:19:29 59° N 21:19:29 59° N 21:22:42 10° N
BREEZE-M DEB (TANK) 3.0 21:09:37 10° WSW 21:20:15 86° SSE 21:21:11 58° ENE
Cosmos 1766 4.2 21:17:35 10° SSW 21:21:24 48° W 21:25:14 10° N
Meteor 1-21 Rocket 4.4 21:19:45 10° N 21:25:08 51° ENE 21:25:08 51° ENE
Cosmos 2154 Rocket 3.9 21:22:44 10° S 21:28:57 88° E 21:35:14 10° N
COSMOS 2406 3.3 21:24:44 10° SSW 21:30:26 77° WNW 21:36:12 10° NNE
Cosmos 2341 Rocket 3.8 21:34:12 65° SE 21:34:50 70° E 21:41:01 10° NNE
Cosmos 1125 Rocket 3.4 21:33:23 10° NNW 21:38:41 84° WSW 21:38:48 83° SW
H-2A R/B 4.0 21:42:16 17° NNE 21:42:16 17° NNE 21:43:47 10° NNE
NOAA 11 4.5 21:42:52 55° NNE 21:42:52 55° NNE 21:47:23 10° N
Envisat 4.3 21:45:42 24° SSW 21:48:06 37° W 21:52:49 10° NNW
ERS-1 Rocket 4.1 21:51:22 35° NNE 21:51:22 35° NNE 21:54:25 10° N
ARGOS 4.2 21:57:12 35° NNE 21:57:12 35° NNE 22:00:30 10° N
Resurs 01 Rocket 4.0 21:54:17 13° SW 21:56:51 19° W 22:00:04 10° NW
ATLAS 2AS CENTAUR R/B 3.4 22:18:45 10° NNW 22:25:45 49° NNE 22:25:45 49° NNE
USA 267 4.5 22:55:44 33° N 22:55:44 33° N 23:00:29 10° NW
Cosmos 1980 Rocket 4.4 22:54:48 10° NNW 22:56:29 19° N 22:56:29 19° N
